User: anonymous   Login
Location: Unspecified
(0.0000°N, 0.0000°E)
Time: 20:10:43
(UTC+00:00)
Language:

STARLINK-4135 - Orbit

View from above orbital plane
View from above orbital plane
View from above satellite
View from above satellite

Ground track
Ground track

The orbit is defined by the following mean orbital elements,

1 53248U          26145.47957519 +.00000000 +00000-0 -27545-3 0 00007
2 53248  53.2120 214.5027 0001609  80.8354 279.2820 15.08858533    08
Epoch (UTC): 25 May 2026 11:30:35
Eccentricity: 0.0001609
inclination: 53.2120°
perigee height: 539 km
apogee height: 541 km
right ascension of ascending node: 214.5027°
argument of perigee: 80.8354°
revolutions per day: 15.08858533
mean anomaly at epoch: 279.2820°

The dashed part of the orbit path shows where the satellite is in the earth's shadow,  

DLR